N565W KLXV-KLXV

Flight info

Callsign N565W
Flight time 0h 1m
Altitude 12500
Route KASE KGWS KEGE
Aircraft C152/L-DFLOTV/S

Departure

Time 2026-04-22 00:15
Airport Lake County Airport (KLXV)

Arrival

Time 2026-04-22 00:17
Airport Lake County Airport (KLXV)
Time Latitude Longitude Altitude Speed Heading
2026-04-21 23:58 39.22535 -106.31618 9936 ft 0 kts 286°
2026-04-22 00:00 39.22536 -106.31621 9936 ft 1 kts 315°
2026-04-22 00:01 39.22549 -106.31624 9935 ft 5 kts 322°
2026-04-22 00:01 39.22555 -106.31655 9935 ft 2 kts 261°
2026-04-22 00:01 39.22548 -106.31671 9936 ft 3 kts 192°
2026-04-22 00:01 39.22519 -106.31667 9936 ft 6 kts 172°
2026-04-22 00:02 39.22489 -106.31678 9937 ft 4 kts 253°
2026-04-22 00:02 39.22487 -106.31689 9937 ft 0 kts 262°
2026-04-22 00:03 39.22487 -106.31690 9937 ft 1 kts 259°
2026-04-22 00:04 39.22480 -106.31735 9936 ft 9 kts 252°
2026-04-22 00:04 39.22409 -106.31750 9937 ft 15 kts 172°
2026-04-22 00:04 39.22281 -106.31725 9935 ft 22 kts 171°
2026-04-22 00:04 39.22122 -106.31692 9936 ft 24 kts 171°
2026-04-22 00:05 39.21953 -106.31655 9931 ft 25 kts 172°
2026-04-22 00:05 39.21782 -106.31613 9928 ft 25 kts 169°
2026-04-22 00:05 39.21617 -106.31577 9926 ft 22 kts 169°
2026-04-22 00:05 39.21478 -106.31546 9927 ft 18 kts 172°
2026-04-22 00:06 39.21358 -106.31520 9926 ft 17 kts 171°
2026-04-22 00:06 39.21258 -106.31497 9928 ft 12 kts 172°
2026-04-22 00:06 39.21193 -106.31481 9931 ft 7 kts 171°
2026-04-22 00:06 39.21166 -106.31459 9930 ft 4 kts 92°
2026-04-22 00:07 39.21170 -106.31401 9930 ft 9 kts 86°
2026-04-22 00:07 39.21136 -106.31367 9930 ft 5 kts 163°
2026-04-22 00:07 39.21126 -106.31364 9928 ft 0 kts 170°
2026-04-22 00:08 39.21122 -106.31363 9929 ft 1 kts 168°
2026-04-22 00:08 39.21121 -106.31362 9929 ft 0 kts 168°
2026-04-22 00:09 39.21119 -106.31362 9930 ft 2 kts 170°
2026-04-22 00:09 39.21102 -106.31367 9931 ft 0 kts 220°
2026-04-22 00:10 39.21096 -106.31383 9931 ft 0 kts 258°
2026-04-22 00:13 39.21095 -106.31385 9931 ft 1 kts 254°
2026-04-22 00:13 39.21090 -106.31425 9932 ft 8 kts 263°
2026-04-22 00:13 39.21142 -106.31476 9932 ft 21 kts 345°
2026-04-22 00:14 39.21433 -106.31539 9926 ft 62 kts 351°
2026-04-22 00:14 39.21926 -106.31646 9967 ft 76 kts 335°
2026-04-22 00:14 39.22439 -106.31760 10077 ft 75 kts 337°
2026-04-22 00:14 39.22931 -106.31862 10180 ft 68 kts 338°
2026-04-22 00:15 39.23393 -106.31958 10238 ft 66 kts 339°
2026-04-22 00:15 39.23867 -106.32075 10348 ft 71 kts 339°
2026-04-22 00:15 39.24334 -106.32164 10435 ft 67 kts 340°
2026-04-22 00:15 39.24796 -106.32297 10530 ft 68 kts 325°
2026-04-22 00:16 39.24903 -106.32735 10634 ft 57 kts 252°
2026-04-22 00:16 39.24827 -106.33235 10695 ft 57 kts 258°
2026-04-22 00:16 39.24796 -106.33730 10760 ft 53 kts 258°
2026-04-22 00:16 39.24656 -106.34069 10733 ft 50 kts 176°
2026-04-22 00:17 39.24316 -106.34004 10765 ft 50 kts 178°
2026-04-22 00:17 39.23999 -106.33877 10768 ft 44 kts 174°
2026-04-22 00:17 39.23688 -106.33761 10650 ft 50 kts 175°
2026-04-22 00:17 39.23300 -106.33669 10639 ft 63 kts 181°
2026-04-22 00:18 39.22853 -106.33565 10767 ft 69 kts 179°
2026-04-22 00:18 39.22376 -106.33456 10980 ft 68 kts 174°
2026-04-22 00:18 39.21918 -106.33310 11172 ft 70 kts 174°
2026-04-22 00:18 39.21444 -106.33183 11320 ft 69 kts 174°
2026-04-22 00:19 39.20974 -106.33062 11408 ft 67 kts 175°
2026-04-22 00:19 39.20518 -106.32972 11477 ft 67 kts 176°
2026-04-22 00:19 39.20036 -106.32852 11540 ft 73 kts 175°
2026-04-22 00:19 39.19524 -106.32770 11622 ft 74 kts 184°
2026-04-22 00:20 39.18999 -106.32780 11693 ft 77 kts 184°
2026-04-22 00:20 39.18465 -106.32766 11750 ft 76 kts 183°
2026-04-22 00:20 39.17929 -106.32736 11810 ft 79 kts 183°
2026-04-22 00:20 39.17361 -106.32726 11865 ft 83 kts 182°
2026-04-22 00:21 39.16784 -106.32717 11918 ft 83 kts 182°
2026-04-22 00:21 39.16224 -106.32707 11986 ft 76 kts 183°
2026-04-22 00:21 39.15717 -106.32691 12065 ft 70 kts 183°
2026-04-22 00:21 39.15232 -106.32672 12135 ft 70 kts 184°
2026-04-22 00:22 39.14772 -106.32643 12206 ft 66 kts 183°
2026-04-22 00:22 39.14313 -106.32627 12281 ft 65 kts 183°
2026-04-22 00:22 39.13912 -106.32774 12348 ft 60 kts 208°
2026-04-22 00:22 39.13531 -106.33001 12419 ft 60 kts 207°
2026-04-22 00:23 39.13148 -106.33232 12497 ft 61 kts 207°
2026-04-22 00:23 39.12751 -106.33473 12528 ft 68 kts 207°
2026-04-22 00:23 39.12303 -106.33740 12531 ft 75 kts 208°
2026-04-22 00:23 39.11793 -106.34040 12526 ft 83 kts 207°
2026-04-22 00:24 39.11247 -106.34372 12514 ft 92 kts 206°
2026-04-22 00:24 39.10652 -106.34722 12512 ft 96 kts 207°
2026-04-22 00:24 39.10031 -106.35100 12498 ft 103 kts 208°
2026-04-22 00:24 39.09369 -106.35507 12487 ft 108 kts 207°
2026-04-22 00:25 39.08695 -106.35920 12481 ft 107 kts 208°
2026-04-22 00:25 39.08272 -106.36630 12465 ft 102 kts 254°
2026-04-22 00:25 39.07979 -106.37407 12452 ft 95 kts 236°
2026-04-22 00:25 39.07648 -106.38123 12444 ft 92 kts 237°
2026-04-22 00:26 39.07326 -106.38830 12442 ft 93 kts 238°
2026-04-22 00:26 39.07011 -106.39567 12438 ft 95 kts 239°
2026-04-22 00:26 39.06751 -106.40361 12430 ft 98 kts 255°
2026-04-22 00:26 39.06644 -106.41220 12430 ft 98 kts 260°
2026-04-22 00:27 39.06635 -106.42114 12427 ft 100 kts 264°
2026-04-22 00:27 39.06629 -106.43002 12419 ft 98 kts 264°
2026-04-22 00:27 39.06644 -106.43865 12414 ft 96 kts 269°
2026-04-22 00:27 39.06729 -106.44719 12417 ft 99 kts 274°
2026-04-22 00:28 39.06827 -106.45602 12415 ft 99 kts 269°
2026-04-22 00:28 39.06879 -106.46477 12414 ft 96 kts 266°
2026-04-22 00:28 39.06851 -106.47312 12409 ft 92 kts 264°
2026-04-22 00:28 39.06831 -106.48116 12408 ft 91 kts 264°
2026-04-22 00:29 39.06821 -106.48933 12406 ft 91 kts 262°
2026-04-22 00:29 39.06843 -106.49789 12395 ft 97 kts 271°
2026-04-22 00:29 39.06910 -106.50650 12387 ft 99 kts 274°
2026-04-22 00:29 39.07066 -106.51529 12378 ft 103 kts 278°
2026-04-22 00:30 39.07349 -106.52385 12369 ft 107 kts 296°
2026-04-22 00:30 39.07769 -106.53185 12362 ft 110 kts 302°
2026-04-22 00:30 39.08330 -106.53878 12365 ft 116 kts 320°
2026-04-22 00:30 39.09133 -106.54216 12376 ft 125 kts 340°
2026-04-22 00:31 39.09991 -106.54395 12383 ft 126 kts 353°
2026-04-22 00:31 39.10849 -106.54266 12372 ft 124 kts 23°
2026-04-22 00:31 39.11578 -106.53727 12394 ft 119 kts 28°
2026-04-22 00:31 39.12378 -106.53450 12396 ft 122 kts
2026-04-22 00:32 39.13199 -106.53460 12399 ft 115 kts 345°
2026-04-22 00:32 39.13995 -106.53656 12404 ft 118 kts 346°
2026-04-22 00:32 39.14775 -106.53848 12580 ft 102 kts 342°
2026-04-22 00:32 39.15358 -106.54246 12749 ft 94 kts 315°
2026-04-22 00:33 39.15590 -106.54923 12911 ft 88 kts 251°
2026-04-22 00:33 39.15130 -106.55258 13011 ft 89 kts 173°
2026-04-22 00:33 39.14629 -106.54706 12993 ft 93 kts 142°
2026-04-22 00:33 39.14303 -106.54016 13086 ft 86 kts 124°
2026-04-22 00:34 39.13880 -106.53728 13200 ft 67 kts 201°
2026-04-22 00:34 39.13787 -106.54201 13260 ft 70 kts 306°
2026-04-22 00:34 39.14238 -106.54440 13103 ft 72 kts 328°
2026-04-22 00:34 39.14707 -106.54661 13019 ft 74 kts 328°
2026-04-22 00:35 39.15230 -106.54780 13035 ft 76 kts 338°
2026-04-22 00:35 39.15790 -106.54672 13096 ft 94 kts 15°
2026-04-22 00:35 39.16435 -106.54346 13171 ft 98 kts 11°
2026-04-22 00:35 39.17111 -106.54387 13259 ft 104 kts
2026-04-22 00:36 39.17834 -106.54248 13333 ft 106 kts
2026-04-22 00:36 39.18600 -106.54177 13415 ft 116 kts 356°
2026-04-22 00:36 39.19410 -106.54166 13439 ft 115 kts 356°
2026-04-22 00:36 39.20221 -106.54160 13533 ft 118 kts 356°
2026-04-22 00:37 39.21022 -106.54183 13612 ft 112 kts 340°
2026-04-22 00:37 39.21484 -106.54820 13653 ft 94 kts 268°
2026-04-22 00:37 39.21137 -106.55363 13707 ft 88 kts 191°
2026-04-22 00:37 39.20511 -106.55225 13706 ft 90 kts 177°
2026-04-22 00:38 39.19875 -106.55105 13725 ft 96 kts 178°
2026-04-22 00:38 39.19201 -106.54981 13722 ft 96 kts 177°
2026-04-22 00:38 39.18570 -106.55031 13729 ft 90 kts 205°
2026-04-22 00:38 39.18066 -106.55493 13714 ft 94 kts 244°
2026-04-22 00:39 39.18173 -106.56377 13707 ft 111 kts 274°
2026-04-22 00:39 39.18170 -106.57366 13701 ft 108 kts 264°
2026-04-22 00:39 39.17876 -106.58183 13683 ft 99 kts 228°
2026-04-22 00:39 39.17306 -106.58601 13679 ft 95 kts 203°
2026-04-22 00:40 39.16672 -106.58939 13641 ft 101 kts 213°
2026-04-22 00:40 39.16065 -106.59433 13495 ft 103 kts 214°
2026-04-22 00:40 39.15474 -106.59942 13375 ft 104 kts 214°
2026-04-22 00:40 39.14849 -106.60404 13229 ft 104 kts 211°
2026-04-22 00:41 39.14218 -106.60869 13084 ft 105 kts 211°
2026-04-22 00:41 39.13572 -106.61353 12936 ft 109 kts 212°
2026-04-22 00:41 39.13080 -106.62081 12787 ft 109 kts 239°
2026-04-22 00:41 39.12902 -106.63023 12665 ft 112 kts 261°
2026-04-22 00:42 39.12816 -106.64045 12517 ft 116 kts 261°
2026-04-22 00:42 39.12715 -106.65065 12373 ft 113 kts 260°
2026-04-22 00:42 39.12622 -106.66052 12305 ft 107 kts 260°
2026-04-22 00:42 39.12490 -106.66947 12298 ft 101 kts 252°